Zurück zum Katalog

STARLINK-34029

AktivKommunikationVLEO
NORAD 63805·PAYLOAD·🇺🇸 United States

Gestartet May 4, 2025 von Cape Canaveral Space Force Station

Loading…

Nächste Überflüge (nächste 24 Stunden)

TLE

AktuellSource: CelesTrak SupGP

Epoche: Sep 15, 2026, 03:32 UTC

1 63805C 25092B   26258.14770833 -.00010860  00000+0 -39342-3 0  2584
2 63805  43.0005 182.9458 0001369 273.7495 159.2180 15.27576373    12

Verfolge STARLINK-34029 in Echtzeit mit AllMySat

Download on the App Store